Nantucket, MA

7:23 PM EDT on July 24, 2017 (GMT -0400)
Nantucket Memorial

Weather History for KACK - November, 2012

Change the Weather History Date:

Saturday, November 3, 2012

  Actual Average Record
Temperature  
Mean Temperature 48 °F -  
Max Temperature 52 °F 60 °F 69 °F (1971)
Min Temperature 45 °F 45 °F 25 °F (1976)
Degree Days  
Heating Degree Days 16    
Moisture  
Dew Point 36 °F    
Average Humidity 65    
Maximum Humidity 74    
Minimum Humidity 56    
Precipitation  
Precipitation 0.00 in - - ()
Sea Level Pressure  
Sea Level Pressure 29.70 in    
Wind  
Wind Speed 11 mph (NW)    
Max Wind Speed 17 mph    
Max Gust Speed 25 mph    
Visibility 10 miles    
Events      
Averages and records for this station are not official NWS values.
T = Trace of Precipitation, MM = Missing Value Source: NWS Daily Summary

Daily Weather History Graph

Daily Weather History Graph

Search for Another Location

Airport or City:

Trip Planner

Search our weather history database for the weather conditions in past years. The results will help you decide how hot, cold, wet, or windy it might be!

Date:

Astronomy

Nov. 03, 2012 Rise Set
Actual Time 7:14 AM EDT 5:32 PM EDT
Civil Twilight 6:45 AM EDT 6:01 PM EDT
Nautical Twilight 6:12 AM EDT 6:34 PM EDT
Astronomical Twilight 5:40 AM EDT 7:06 PM EDT
Moon 9:09 PM EDT (11/3) 11:17 AM EDT (11/3)
Length of Visible Light 11h 15m
Length of Day
10h 18m
Waning Gibbous, 80% of the Moon is Illuminated
Nov 3
Waning Gibbous
Nov 6
Last Quarter
Nov 13
New
Nov 20
First Quarter
Nov 28
Full

Hourly Weather History & Observations

Time (EDT) Temp. Windchill Dew Point Humidity Pressure Visibility Wind Dir Wind Speed Gust Speed Precip Events Conditions
1:53 AM 46.0 °F 41.9 °F 34.0 °F 63% 29.61 in 10.0 mi NW 8.1 mph - N/A   Clear
2:53 AM 45.0 °F 40.6 °F 35.1 °F 68% 29.61 in 10.0 mi WNW 8.1 mph - N/A   Partly Cloudy
3:53 AM 45.0 °F 39.3 °F 36.0 °F 71% 29.61 in 10.0 mi WNW 11.5 mph - N/A   Clear
4:53 AM 45.0 °F 39.3 °F 36.0 °F 71% 29.62 in 10.0 mi NW 11.5 mph - N/A   Clear
5:53 AM 45.0 °F 39.3 °F 36.0 °F 71% 29.63 in 10.0 mi NW 11.5 mph - N/A   Clear
6:53 AM 45.0 °F 39.3 °F 36.0 °F 71% 29.64 in 10.0 mi NW 11.5 mph 20.7 mph N/A   Partly Cloudy
7:53 AM 45.0 °F 39.3 °F 37.0 °F 74% 29.67 in 10.0 mi NW 11.5 mph 20.7 mph N/A   Partly Cloudy
8:53 AM 46.0 °F 39.6 °F 37.0 °F 71% 29.69 in 10.0 mi NW 15.0 mph - N/A   Clear
9:53 AM 48.0 °F - 37.9 °F 68% 29.70 in 10.0 mi NW 17.3 mph 23.0 mph N/A   Scattered Clouds
10:53 AM 48.0 °F - 37.9 °F 68% 29.70 in 10.0 mi NW 13.8 mph - N/A   Scattered Clouds
11:39 AM 48.2 °F - 39.2 °F 71% 29.70 in 10.0 mi NW 15.0 mph - N/A   Mostly Cloudy
11:53 AM 50.0 °F - 39.0 °F 66% 29.70 in 10.0 mi NW 10.4 mph - N/A   Overcast
12:12 PM 48.2 °F - 39.2 °F 71% 29.70 in 10.0 mi NW 11.5 mph - N/A   Mostly Cloudy
12:53 PM 48.9 °F - 37.9 °F 66% 29.69 in 10.0 mi WNW 10.4 mph - N/A   Partly Cloudy
1:53 PM 50.0 °F - 37.9 °F 63% 29.69 in 10.0 mi WNW 9.2 mph - N/A   Mostly Cloudy
2:53 PM 52.0 °F - 37.9 °F 59% 29.69 in 10.0 mi WNW 13.8 mph - N/A   Clear
3:53 PM 52.0 °F - 37.0 °F 57% 29.70 in 10.0 mi WNW 10.4 mph - N/A   Clear
4:53 PM 51.1 °F - 37.0 °F 59% 29.71 in 10.0 mi WNW 9.2 mph - N/A   Clear
5:53 PM 48.0 °F - 37.0 °F 66% 29.72 in 10.0 mi West 6.9 mph - N/A   Clear
6:53 PM 50.0 °F - 37.0 °F 61% 29.74 in 10.0 mi NW 8.1 mph - N/A   Mostly Cloudy
7:53 PM 51.1 °F - 36.0 °F 56% 29.75 in 10.0 mi NW 13.8 mph 20.7 mph N/A   Overcast
8:53 PM 48.0 °F - 35.1 °F 61% 29.76 in 10.0 mi NW 16.1 mph - N/A   Clear
9:53 PM 46.9 °F - 33.1 °F 59% 29.79 in 10.0 mi NW 17.3 mph 25.3 mph N/A   Clear
10:53 PM 46.0 °F 39.6 °F 33.1 °F 61% 29.79 in 10.0 mi NNW 15.0 mph 20.7 mph N/A   Clear
11:53 PM 46.0 °F 39.0 °F 32.0 °F 58% 29.79 in 10.0 mi NW 17.3 mph 21.9 mph N/A   Clear